sat.trackr.live / text

‹ back to catalog

CARBSAR

NORAD 67397 · 2026-004AL

PAYLOAD ACTIVE UNKNOWN

§ Identity

Operator
Country
UK
Launch date
2026-01-11
Launch site
AFWTR
Launch vehicle
Mass (kg)
RCS (m²)

External: N2YO · Heavens-Above · Gunter

§ Orbital elements

Epoch: 2026-09-20T22:55:51.004416Z

Period
94.70 min
Inclination
97.4608°
Eccentricity
0.0005946
Mean motion
15.20543590 rev/d
Perigee alt
500.1 km
Apogee alt
508.3 km
Semi-major
6,882.3 km
B*
2.0093e-4
RAAN
262.0406°
Arg perigee
21.3853°
Mean anomaly
338.7630°
Rev number
3,831

§ Raw data

CARBSAR1 67397U 26004AL  26263.95545144  .00004329  00000+0  20093-3 0  99942 67397  97.4608 262.0406 0005946  21.3853 338.7630 15.20543590 38313

JSON: /api/v1/satellites/67397 · /tle

For live sub-satellite position, see the globe view (requires WebGL).

§ Visibility from observer

Set your observer location to see the next 7 days of passes ≥ 10°. The values pass through the URL so the page stays shareable.

No JS? Fill the form by hand. The geolocation button needs JavaScript.